Flag for Canada Weather past 2 weeks in Richmond, British Columbia, Canada

Now
50 °F

Mostly cloudy.


Feels Like: 46 °F
Forecast: 44 / 51 °F
Wind: 12 mph from North

Location: Vancouver International Air-Port

Current Time: Mar 31, 2015 at 7:03:32 PM

Latest Report: Mar 31, 2015 at 6:00 PM


Visibility: 30 mi

Pressure: 30.08 "Hg

Humidity: 67%

Dew point: 39 °F

Location of RichmondLocation

Historic Weather in Richmond — Graph

°F

Richmond temperature yesterday

Maximum temperature yesterday: 63 °F (at 3:00 PM)
Minimum temperature yesterday: 50 °F (at 12:00 AM)
Average temperature yesterday: 55 °F

Past Weeks' High & Low Weather Summary

 TemperatureHumidityPressure
High63 °F (Mar 26, 2:00 PM)100% (Mar 20, 3:00 AM)30.31 "Hg (Mar 20, 3:00 AM)
Low37 °F (Mar 17, 3:00 AM)51% (Mar 18, 5:00 PM)29.74 "Hg (Mar 31, 12:00 AM)
Average50 °F85%30.07 "Hg
* Reported Mar 16 6:00 PM — Mar 31 6:00 PM, Richmond, Weather by CustomWeather, © 2015

Note: Actual official high and low records may vary slightly from our data, if they occured in-between our weather recording intervals... More about our weather records

Advertising

Richmond weather history for previous 24 hours

 ConditionsComfort  
Time TempWeatherWind HumidityBarometerVisibility
6:00 PM
Tue, Mar 31
50 °FMostly cloudy.12 mph67%30.08 "Hg30 mi
5:00 PM50 °FPartly sunny.12 mph71%30.08 "Hg30 mi
4:00 PM52 °FBroken clouds.9 mph58%30.07 "Hg30 mi
3:00 PM52 °FCloudy.8 mph67%30.07 "Hg30 mi
2:00 PM52 °FBroken clouds.8 mph62%30.06 "Hg30 mi
1:00 PM52 °FPartly sunny.10 mph72%30.06 "Hg30 mi
12:00 PM50 °FPartly sunny.10 mph71%30.04 "Hg30 mi
11:00 AM50 °FScattered clouds.12 mph71%30.02 "Hg30 mi
10:00 AM50 °FScattered clouds.12 mph76%29.99 "Hg30 mi
9:00 AM48 °FPartly sunny.10 mph76%29.97 "Hg30 mi
8:00 AM46 °FScattered clouds.12 mph76%29.95 "Hg30 mi
7:00 AM45 °FPassing clouds.13 mph81%29.93 "Hg20 mi
6:00 AM46 °FPassing clouds.16 mph82%29.91 "Hg15 mi
5:00 AM46 °FPassing clouds.21 mph82%29.88 "Hg15 mi
4:00 AM46 °FMostly cloudy.25 mph82%29.84 "Hg12 mi
3:00 AM46 °FMostly cloudy.26 mph82%29.81 "Hg10 mi
2:00 AM46 °FSprinkles. Mostly cloudy.23 mph87%29.78 "Hg8 mi
1:00 AM48 °FRain. Mostly cloudy.23 mph94%29.76 "Hg5 mi
12:55 AM48 °FRain. Mostly cloudy.20 mph94%29.76 "Hg5 mi
12:00 AM54 °FOvercast.10 mph88%29.74 "Hg15 mi
11:00 PM
Mon, Mar 30
55 °FMostly cloudy.10 mph77%29.75 "Hg15 mi
10:00 PM55 °FMostly cloudy.8 mph82%29.78 "Hg15 mi
9:00 PM57 °FPartly cloudy.7 mph72%29.79 "Hg20 mi
8:00 PM57 °FPartly sunny.8 mph72%29.81 "Hg20 mi
7:00 PM59 °FPartly sunny.7 mph68%29.82 "Hg20 mi
Weather by CustomWeather, © 2015

See weather overviewHow to use our weather pages